Tracking 19709 objects as of 20-Jun-2019
HD Live streaming from Space Station
objects crossing your sky now

FENGYUN 1C DEB

Track FENGYUN 1C DEB now!
10-day predictions


NORAD ID: 31674
Int'l Code: 1999-025CCG
Perigee: 808.8 km
Apogee: 864.5 km
Inclination: 98.9 °
Period: 101.5 minutes
Semi major axis: 7207 km
RCS: 0.0141 m2 (small)
Launch date: May 10, 1999
Source: People's Republic of China (PRC)
Launch site: Taiyaun Space Center, China (TSC)

Note: This is SATELLITE DEBRIS
aabbcc
Your satellite tracking list
Your tracking list is empty




NASA's NSSDC Master Catalog

Two Line Element Set (TLE):
1 31674U 99025CCG 19169.08904398  .00000681  00000-0  34709-3 0  9994
2 31674  98.8828 125.6545 0038638 322.1806  37.6655 14.18775163626250
Source of the keplerian elements: AFSPC